z/d,0,0,50,50,100,100,200,200,300,300,400,400,500,500,750,750,1000,1000,2000,2000,3000,3000,4000,4000,4700,4700
2016.11.01-01:00,.65,61.34,.84,76.94,.74,77.72,.90,82.61,.92,81.77,.98,69.03,.90,72.06,.72,63.20,.46,61.96,.27,62.70,.22,41.85,.29,39.57,.04,90.00
2016.11.01-02:00,.69,58.36,.84,79.21,.72,76.72,.85,79.60,.86,77.89,.98,68.46,.88,72.29,.74,67.32,.47,64.87,.23,59.57,.18,37.27,.25,36.82,.03,90.00
2016.11.01-03:00,.71,61.21,.83,80.75,.71,75.12,.82,76.03,.84,73.63,.97,68.82,.85,73.06,.72,72.43,.47,68.61,.20,55.54,.15,30.46,.22,31.77,.02,90.00
2016.11.01-04:00,.44,123.20,.81,82.19,.71,73.74,.82,73.18,.85,70.38,.97,70.20,.82,73.98,.68,77.27,.45,71.28,.18,51.84,.12,22.63,.19,25.35,.02,90.00
2016.11.01-05:00,.51,121.77,.79,84.10,.71,73.28,.83,71.97,.88,68.96,.98,72.29,.80,74.65,.62,81.05,.41,72.30,.17,50.22,.11,17.28,.18,20.30,.01,90.00
2016.11.01-06:00,.51,125.31,.74,86.20,.72,73.62,.86,72.34,.91,69.10,.99,74.51,.80,74.91,.56,83.19,.38,72.25,.18,51.02,.11,17.02,.18,18.72,.01,90.00
2016.11.01-07:00,.44,129.97,.67,87.86,.71,74.32,.87,73.66,.95,70.06,1.01,76.52,.82,74.96,.52,83.25,.36,71.91,.19,52.95,.13,20.50,.20,20.18,.01,90.00
2016.11.01-08:00,.35,127.80,.59,87.61,.69,74.84,.87,75.18,.97,71.23,1.02,78.24,.84,75.09,.50,81.31,.36,71.49,.22,54.90,.15,25.70,.23,23.78,.02,90.00
2016.11.01-09:00,.27,121.62,.53,84.11,.69,75.35,.87,76.46,.99,72.44,1.03,79.65,.87,75.24,.50,77.72,.37,70.03,.24,55.62,.18,30.40,.25,28.00,.03,90.00
2016.11.01-10:00,.23,117.14,.50,78.15,.70,76.20,.88,77.30,1.02,73.61,1.03,80.75,.89,75.21,.51,73.18,.37,66.94,.26,54.84,.20,34.56,.28,32.53,.04,90.00
2016.11.01-11:00,.22,112.33,.49,72.13,.72,77.42,.89,77.56,1.04,74.65,1.03,81.60,.91,75.02,.53,69.07,.39,63.33,.26,52.58,.21,37.32,.29,36.38,.05,90.00
2016.11.01-12:00,.21,105.58,.50,66.80,.72,78.36,.89,76.77,1.05,75.18,1.01,81.97,.91,74.69,.55,66.57,.40,60.98,.26,49.53,.21,38.31,.28,38.98,.05,90.00
2016.11.01-13:00,.21,97.42,.52,62.09,.71,78.51,.88,74.72,1.04,75.05,.98,81.84,.90,74.41,.58,66.08,.42,60.66,.26,46.38,.19,36.70,.25,39.39,.04,90.00
2016.11.01-14:00,.23,89.76,.55,58.53,.71,78.04,.87,71.92,1.02,74.65,.92,81.39,.87,74.44,.58,67.28,.44,62.18,.25,44.24,.17,32.49,.22,37.22,.03,90.00
2016.11.01-15:00,.30,71.90,.59,55.80,.69,77.12,.87,69.19,1.00,74.36,.87,80.53,.84,74.63,.58,69.15,.45,64.67,.24,43.80,.14,26.15,.18,32.16,.02,90.00
2016.11.01-16:00,.38,65.74,.62,53.80,.68,76.07,.89,67.58,.99,74.56,.84,79.28,.81,74.78,.56,70.73,.45,67.24,.23,45.14,.12,19.25,.16,24.99,.01,90.00
2016.11.01-17:00,.47,61.92,.64,52.83,.67,75.07,.92,67.74,.99,75.53,.82,77.99,.80,74.90,.54,71.58,.44,69.73,.22,48.61,.11,15.92,.15,19.07,.00,90.00
2016.11.01-18:00,.55,59.52,.66,52.50,.65,73.79,.95,69.29,1.00,77.13,.83,76.88,.81,74.87,.52,71.47,.42,72.13,.23,53.94,.11,18.81,.16,17.13,.00,90.00
2016.11.01-19:00,.56,59.58,.68,51.56,.63,71.32,.97,71.52,1.00,79.09,.84,75.94,.82,74.55,.52,70.17,.41,73.90,.26,59.67,.13,26.12,.18,19.35,.00,90.00
2016.11.01-20:00,.57,58.71,.71,50.43,.62,67.57,.99,74.32,1.01,81.52,.86,75.46,.85,74.57,.53,68.44,.40,74.75,.29,64.19,.16,33.13,.21,23.43,.01,90.00
2016.11.01-21:00,.62,58.58,.75,50.65,.65,64.02,1.01,77.55,1.01,84.25,.88,75.47,.88,75.12,.56,66.95,.39,74.17,.31,66.80,.19,37.75,.25,27.63,.02,90.00
2016.11.01-22:00,.68,59.01,.80,51.80,.69,60.84,1.01,80.10,1.00,86.18,.90,74.75,.90,75.21,.59,65.34,.39,71.55,.32,68.07,.23,41.32,.29,32.16,.03,90.00
2016.11.01-23:00,.75,61.41,.85,54.80,.74,59.32,1.00,81.86,.96,86.83,.91,73.19,.91,74.74,.64,64.04,.40,67.44,.32,68.14,.25,43.81,.31,36.23,.04,90.00
2016.11.01-24:00,.79,65.20,.89,58.82,.80,58.98,.97,82.56,.91,85.85,.91,71.15,.91,73.91,.68,63.61,.41,63.27,.29,66.81,.25,45.08,.32,39.33,.05,90.00
2016.11.02-01:00,.81,68.04,.90,62.62,.84,58.65,.92,81.77,.85,82.93,.91,68.93,.90,72.95,.72,64.47,.44,60.86,.26,63.85,.24,44.92,.30,41.06,.05,90.00
2016.11.02-02:00,.81,70.94,.89,65.91,.86,58.25,.87,79.30,.79,78.03,.91,66.83,.87,72.05,.74,66.86,.46,61.30,.22,59.08,.20,42.49,.27,40.51,.04,90.00
2016.11.02-03:00,.80,73.93,.86,68.98,.87,58.65,.83,75.71,.77,71.90,.91,65.42,.85,71.54,.74,70.79,.47,64.19,.19,52.08,.17,36.52,.22,36.59,.03,90.00
2016.11.02-04:00,.77,76.45,.82,71.67,.89,60.11,.81,71.96,.78,66.18,.91,64.98,.82,71.56,.71,75.56,.46,67.88,.17,44.22,.14,27.70,.19,29.75,.02,90.00
2016.11.02-05:00,.74,78.83,.78,73.81,.91,62.65,.82,68.93,.82,62.51,.92,65.71,.80,72.15,.65,80.22,.43,70.75,.17,38.43,.12,19.39,.16,22.38,.01,90.00
2016.11.02-06:00,.70,80.47,.74,74.88,.93,65.57,.84,66.90,.87,61.07,.94,67.27,.80,72.94,.59,83.58,.39,71.88,.18,37.15,.11,16.28,.16,18.19,.01,90.00
2016.11.02-07:00,.66,81.73,.69,75.41,.93,69.14,.87,66.60,.93,62.03,.96,69.85,.81,74.13,.53,84.88,.36,71.14,.20,39.36,.12,18.15,.17,17.73,.01,90.00
2016.11.02-08:00,.59,81.37,.63,73.57,.90,72.22,.89,67.22,.96,64.01,.98,72.66,.83,75.21,.50,83.42,.35,68.93,.23,43.32,.14,23.61,.19,20.72,.01,90.00
2016.11.02-09:00,.53,78.86,.59,68.55,.87,74.56,.90,68.72,1.00,66.95,1.00,75.70,.85,76.33,.48,79.73,.35,65.94,.26,46.58,.17,28.88,.22,24.70,.02,90.00
2016.11.02-10:00,.50,73.49,.59,61.54,.85,75.63,.93,70.50,1.03,70.32,1.02,78.64,.87,77.29,.49,74.89,.37,62.65,.29,48.38,.19,33.26,.24,28.93,.03,90.00
2016.11.02-11:00,.51,66.14,.64,55.43,.83,75.26,.96,71.94,1.06,73.51,1.02,81.06,.88,77.85,.51,70.26,.39,59.74,.30,48.84,.20,36.58,.26,32.91,.04,90.00
2016.11.02-12:00,.55,59.99,.71,52.05,.83,73.97,.98,72.66,1.07,76.13,1.00,82.68,.88,77.85,.54,66.85,.42,57.90,.31,48.43,.21,38.52,.26,36.12,.04,90.00
2016.11.02-13:00,.61,57.22,.78,51.36,.84,72.46,.99,72.56,1.05,77.95,.96,83.35,.86,77.36,.57,65.18,.44,57.69,.30,47.79,.19,38.57,.25,38.03,.04,90.00
2016.11.02-14:00,.67,56.89,.84,52.53,.84,71.26,.99,71.91,1.02,78.93,.91,83.09,.82,76.73,.58,65.51,.46,59.48,.29,47.52,.17,35.54,.22,37.59,.03,90.00
2016.11.02-15:00,.75,57.13,.89,54.39,.83,70.07,.99,70.91,.98,78.90,.85,81.74,.79,76.05,.59,67.49,.48,63.05,.27,48.48,.14,28.63,.18,33.90,.02,90.00
2016.11.02-16:00,.86,57.54,.92,56.61,.82,68.81,.99,70.20,.94,78.00,.81,79.41,.76,75.32,.58,70.05,.49,67.25,.25,51.09,.12,19.43,.15,27.31,.01,90.00
2016.11.02-17:00,.92,59.87,.94,59.26,.83,67.93,1.01,70.52,.92,76.89,.78,76.87,.74,74.59,.55,71.90,.48,70.96,.24,55.18,.11,13.00,.14,20.28,.00,270.00
2016.11.02-18:00,.96,62.68,.97,62.08,.84,67.77,1.03,72.09,.92,76.30,.79,75.06,.74,73.88,.53,72.19,.46,73.87,.24,60.40,.11,13.27,.13,15.58,.01,270.00
2016.11.02-19:00,1.00,65.19,1.00,64.54,.87,68.13,1.05,74.63,.92,76.64,.80,74.35,.75,73.30,.51,70.68,.44,75.84,.25,65.53,.12,19.58,.14,14.96,.01,270.00
2016.11.02-20:00,1.02,66.96,1.01,66.20,.91,68.69,1.06,77.73,.93,78.00,.82,74.75,.78,73.24,.52,68.18,.42,76.81,.27,69.13,.15,28.20,.17,18.29,.00,270.00
2016.11.02-21:00,1.06,68.00,1.04,66.90,.95,69.03,1.06,80.60,.94,79.80,.84,75.60,.80,73.62,.54,66.10,.41,77.02,.29,70.91,.18,35.25,.20,22.95,.01,90.00
2016.11.02-22:00,1.11,69.29,1.08,67.62,1.01,69.45,1.06,82.65,.95,81.37,.86,76.08,.83,73.88,.57,64.72,.40,76.08,.30,71.06,.22,40.30,.24,27.68,.02,90.00
2016.11.02-23:00,1.17,71.54,1.13,69.07,1.07,70.12,1.06,83.58,.96,82.25,.87,75.70,.86,73.55,.61,63.87,.39,73.51,.29,69.66,.24,44.13,.27,32.21,.03,90.00
2016.11.02-24:00,1.22,74.56,1.18,71.37,1.13,70.96,1.04,83.36,.95,82.19,.88,74.48,.87,72.66,.65,63.68,.38,69.53,.27,66.33,.25,46.99,.29,36.14,.04,90.00
2016.11.03-01:00,1.24,78.09,1.20,74.42,1.16,71.90,1.02,82.19,.92,81.15,.89,72.74,.88,71.61,.69,64.35,.39,65.26,.24,60.35,.25,48.81,.29,39.09,.04,90.00
2016.11.03-02:00,1.23,81.82,1.20,77.87,1.18,72.72,.99,80.09,.89,78.93,.88,70.71,.87,70.68,.71,66.01,.41,62.31,.21,51.68,.22,49.20,.27,40.47,.04,90.00
2016.11.03-03:00,1.19,85.16,1.15,81.28,1.18,73.41,.96,77.13,.86,75.53,.88,68.68,.86,70.12,.73,68.62,.43,61.72,.19,42.11,.18,46.99,.23,39.19,.03,90.00
2016.11.03-04:00,1.13,87.03,1.10,83.93,1.17,74.39,.95,73.91,.84,71.78,.88,67.26,.84,70.16,.72,71.80,.44,62.82,.19,34.47,.14,40.72,.19,34.44,.02,90.00
2016.11.03-05:00,1.07,88.31,1.04,85.28,1.17,76.00,.95,71.52,.85,69.23,.89,67.14,.83,71.11,.69,75.15,.44,64.20,.19,30.03,.11,29.65,.16,26.83,.01,90.00
2016.11.03-06:00,1.04,90.45,1.00,85.64,1.18,78.22,.98,70.59,.88,68.52,.90,68.35,.82,72.76,.65,78.28,.43,65.03,.21,29.28,.10,18.00,.15,19.68,.01,90.00
2016.11.03-07:00,1.05,95.29,.98,85.74,1.19,81.01,1.01,71.14,.92,69.34,.92,70.41,.81,74.56,.60,80.49,.40,64.91,.23,31.98,.10,12.77,.15,16.28,.00,90.00
2016.11.03-08:00,1.04,96.34,.97,86.04,1.19,84.05,1.05,72.71,.95,71.01,.94,72.86,.81,76.13,.56,81.04,.38,63.74,.27,37.04,.12,15.55,.16,17.55,.01,90.00
2016.11.03-09:00,1.01,96.43,.96,85.57,1.18,86.52,1.07,74.60,.97,72.91,.95,75.37,.82,77.50,.53,79.88,.37,62.04,.30,42.68,.14,22.04,.18,21.55,.01,90.00
2016.11.03-10:00,.97,96.22,.94,83.43,1.14,87.56,1.09,76.23,.99,74.59,.96,77.61,.82,78.63,.51,77.60,.38,60.43,.33,47.55,.17,28.15,.21,25.96,.02,90.00
2016.11.03-11:00,.90,96.18,.94,80.06,1.11,86.92,1.11,77.32,1.00,75.98,.97,79.40,.83,79.36,.51,74.94,.40,58.97,.36,51.08,.19,32.96,.23,30.15,.03,90.00
2016.11.03-12:00,.85,95.15,.95,76.74,1.07,84.94,1.12,77.84,1.01,77.14,.97,80.67,.83,79.54,.53,72.60,.42,57.76,.36,53.28,.21,36.19,.23,33.68,.03,90.00
2016.11.03-13:00,.82,93.14,.97,74.57,1.05,82.47,1.13,77.86,1.01,78.04,.95,81.40,.82,79.13,.55,71.19,.45,57.49,.35,54.75,.20,37.69,.23,36.16,.03,90.00
2016.11.03-14:00,.81,90.26,.98,73.72,1.04,80.21,1.13,77.41,1.00,78.44,.92,81.43,.80,78.21,.56,70.94,.48,58.61,.33,56.10,.19,37.06,.21,36.94,.03,90.00
2016.11.03-15:00,.81,86.91,1.00,73.54,1.04,78.43,1.14,76.74,.98,78.19,.88,80.80,.77,77.19,.56,71.88,.50,61.15,.30,57.77,.17,34.13,.18,35.42,.02,90.00
2016.11.03-16:00,.82,81.48,1.00,72.74,1.05,76.73,1.15,76.19,.96,77.21,.84,79.53,.75,76.27,.55,73.49,.51,64.71,.27,60.09,.15,29.49,.15,31.21,.01,90.00
2016.11.03-17:00,.84,74.75,1.00,70.93,1.06,75.18,1.16,76.49,.94,76.14,.81,78.15,.73,75.67,.54,74.68,.52,68.52,.24,63.00,.13,25.14,.13,24.59,.00,270.00
2016.11.03-18:00,.89,69.71,1.02,68.91,1.09,74.33,1.16,77.94,.94,75.69,.80,77.16,.72,75.36,.51,74.34,.51,72.06,.23,66.30,.12,23.80,.11,17.01,.01,270.00
2016.11.03-19:00,.96,67.14,1.07,67.56,1.12,74.31,1.16,80.29,.94,76.11,.80,76.79,.73,75.29,.49,72.11,.49,75.10,.23,69.49,.13,26.68,.12,12.02,.01,270.00
2016.11.03-20:00,1.05,66.02,1.14,66.94,1.16,74.78,1.16,82.98,.95,77.18,.81,76.96,.74,75.41,.48,68.44,.47,77.18,.24,71.62,.14,32.45,.14,12.61,.01,270.00
2016.11.03-21:00,1.13,65.71,1.22,66.76,1.19,75.25,1.14,85.36,.96,78.37,.82,77.18,.76,75.55,.48,64.58,.44,78.19,.26,72.41,.17,38.68,.17,17.48,.00,270.00
2016.11.03-22:00,1.22,66.16,1.30,66.99,1.23,75.42,1.11,86.84,.98,79.22,.84,76.92,.78,75.23,.51,61.24,.42,77.72,.27,71.85,.20,43.92,.21,23.73,.01,90.00
2016.11.03-23:00,1.32,67.84,1.38,68.01,1.27,75.44,1.09,87.23,.99,79.76,.86,76.10,.80,74.25,.55,58.64,.39,75.14,.27,69.69,.23,48.16,.25,29.82,.02,90.00
2016.11.03-24:00,1.41,70.52,1.46,69.73,1.31,75.29,1.06,86.42,1.00,80.05,.88,74.90,.82,72.77,.60,57.44,.38,70.91,.26,65.16,.25,51.34,.28,34.87,.03,90.00
2016.11.04-01:00,1.47,73.60,1.51,72.02,1.33,74.84,1.02,84.40,.99,79.96,.89,73.43,.84,71.11,.67,58.13,.39,66.66,.24,57.44,.25,53.43,.29,38.57,.04,90.00
2016.11.04-02:00,1.50,77.00,1.53,75.08,1.35,74.40,.98,81.49,.97,79.36,.90,71.84,.85,69.56,.73,60.39,.42,63.63,.23,46.71,.22,54.32,.27,40.85,.04,90.00
2016.11.04-03:00,1.49,80.53,1.51,78.81,1.35,74.21,.94,77.82,.93,77.81,.89,70.03,.84,68.13,.76,63.48,.44,61.90,.23,36.13,.19,53.91,.24,41.66,.04,90.00
2016.11.04-04:00,1.45,84.26,1.46,82.73,1.34,74.56,.92,73.66,.90,75.35,.89,68.38,.83,67.10,.77,67.04,.45,61.01,.24,29.39,.15,51.18,.21,40.17,.03,90.00
2016.11.04-05:00,1.38,87.97,1.39,86.26,1.34,75.63,.93,70.11,.89,73.29,.90,67.97,.83,67.32,.76,71.06,.45,60.36,.26,27.05,.11,43.73,.17,35.01,.02,90.00
2016.11.04-06:00,1.28,91.22,1.30,88.86,1.33,77.05,.97,68.07,.90,72.34,.92,68.95,.82,68.69,.72,75.19,.44,59.62,.27,28.45,.09,31.19,.14,27.07,.01,90.00
2016.11.04-07:00,1.19,93.78,1.22,90.40,1.31,78.76,1.01,67.62,.92,72.06,.93,70.61,.82,70.37,.67,78.80,.43,58.96,.30,32.91,.09,19.57,.14,19.71,.01,90.00
2016.11.04-08:00,1.09,95.58,1.14,91.05,1.29,80.72,1.05,68.32,.94,72.05,.95,72.44,.82,71.87,.62,81.21,.42,58.74,.32,39.41,.11,15.57,.14,16.22,.01,90.00
2016.11.04-09:00,1.00,96.29,1.06,90.51,1.27,82.56,1.09,69.76,.96,72.36,.96,74.42,.83,73.33,.57,81.77,.41,58.56,.35,46.17,.13,18.60,.16,17.65,.01,90.00
2016.11.04-10:00,.90,95.15,1.00,88.40,1.23,83.73,1.13,71.52,.98,73.05,.97,76.54,.84,75.03,.53,80.50,.42,58.08,.38,52.01,.16,24.32,.18,21.98,.01,90.00
2016.11.04-11:00,.82,91.56,.95,84.57,1.19,83.73,1.16,73.06,1.01,73.85,.98,78.33,.86,76.60,.51,77.60,.43,57.23,.39,56.74,.19,30.01,.20,26.90,.02,90.00
2016.11.04-12:00,.77,86.04,.93,79.86,1.15,82.71,1.18,74.20,1.03,74.73,.98,79.57,.87,77.66,.51,74.10,.45,56.70,.39,60.41,.20,34.42,.21,31.01,.02,90.00
2016.11.04-13:00,.74,81.11,.92,75.52,1.12,80.99,1.18,74.87,1.04,75.60,.97,80.17,.87,78.00,.53,71.27,.48,57.09,.38,63.12,.21,37.32,.21,34.03,.02,90.00
2016.11.04-14:00,.72,77.75,.93,72.42,1.10,79.02,1.19,75.18,1.04,76.36,.96,80.27,.87,77.82,.55,70.07,.50,58.79,.35,65.04,.20,38.68,.20,35.73,.02,90.00
2016.11.04-15:00,.76,73.19,.95,70.26,1.09,77.04,1.19,75.34,1.04,76.93,.93,80.08,.86,77.62,.57,70.76,.53,61.73,.31,66.27,.18,38.44,.18,35.31,.01,90.00
2016.11.04-16:00,.81,68.70,.96,68.03,1.09,75.11,1.19,75.61,1.02,77.19,.91,79.76,.84,77.81,.58,72.72,.54,65.17,.27,66.91,.16,37.33,.15,32.10,.01,90.00
2016.11.04-17:00,.86,65.08,.99,65.29,1.10,73.37,1.18,76.31,1.00,77.20,.88,79.33,.82,78.42,.56,74.56,.54,68.19,.24,67.35,.14,36.92,.12,25.83,.00,270.00
2016.11.04-18:00,.93,62.48,1.03,62.96,1.12,72.34,1.17,77.49,.99,77.14,.85,78.74,.79,79.27,.53,74.96,.54,70.53,.22,68.34,.13,38.21,.11,17.06,.01,270.00
2016.11.04-19:00,1.02,61.82,1.10,62.15,1.16,72.56,1.17,79.03,.98,77.24,.83,78.01,.76,80.03,.49,73.01,.52,72.41,.21,69.81,.13,40.97,.11,9.72,.01,270.00
2016.11.04-20:00,1.12,62.66,1.19,62.71,1.20,73.93,1.17,80.79,1.00,77.65,.83,77.40,.75,80.48,.47,68.64,.49,73.86,.21,70.40,.13,44.49,.13,8.45,.01,270.00
2016.11.04-21:00,1.21,63.73,1.26,63.70,1.22,75.63,1.16,82.47,1.01,78.25,.84,76.94,.74,80.50,.47,63.46,.47,74.73,.22,69.23,.15,48.11,.16,13.00,.01,270.00
2016.11.04-22:00,1.29,64.82,1.33,64.86,1.24,77.05,1.15,83.74,1.03,78.73,.86,76.32,.75,79.79,.49,59.31,.44,74.62,.24,66.39,.17,51.42,.19,20.30,.01,90.00
2016.11.04-23:00,1.37,66.58,1.41,66.77,1.25,78.13,1.14,84.39,1.05,79.05,.89,75.39,.76,78.13,.54,56.99,.42,73.04,.25,61.77,.20,54.19,.23,27.70,.02,90.00
2016.11.04-24:00,1.44,69.17,1.47,69.38,1.25,78.62,1.12,84.22,1.06,79.01,.91,73.98,.77,75.38,.59,56.39,.41,70.05,.26,55.51,.22,56.61,.25,34.43,.03,90.00
2016.11.05-01:00,1.48,72.45,1.50,72.37,1.24,78.27,1.09,83.02,1.06,78.42,.93,72.10,.78,71.75,.65,57.47,.41,66.98,.27,48.30,.22,58.22,.27,39.67,.04,90.00
2016.11.05-02:00,1.50,76.26,1.51,75.74,1.23,77.26,1.05,80.77,1.04,77.33,.95,70.21,.81,68.18,.71,60.10,.43,65.02,.28,41.23,.21,58.28,.26,42.71,.05,90.00
2016.11.05-03:00,1.48,79.96,1.49,79.27,1.20,75.74,1.01,77.58,1.02,75.74,.96,68.55,.84,65.29,.76,63.42,.45,63.91,.29,35.96,.18,56.85,.24,43.76,.04,90.00
2016.11.05-04:00,1.42,83.21,1.43,82.60,1.18,74.10,.98,73.89,.99,73.85,.97,67.38,.86,63.44,.78,67.00,.46,63.06,.31,33.47,.15,53.42,.20,42.58,.04,90.00
2016.11.05-05:00,1.35,86.26,1.35,85.63,1.18,73.14,.97,70.76,.97,72.38,.97,67.26,.87,63.16,.77,70.87,.46,61.98,.32,33.54,.12,46.23,.17,38.00,.03,90.00
2016.11.05-06:00,1.25,89.02,1.25,88.11,1.18,73.02,.99,68.98,.97,71.76,.98,68.31,.88,64.41,.73,74.76,.45,60.45,.33,35.61,.10,35.07,.14,30.01,.02,90.00
2016.11.05-07:00,1.14,91.09,1.14,89.44,1.18,73.47,1.02,68.45,.98,71.81,.99,70.11,.88,66.61,.69,78.21,.44,58.65,.35,39.27,.10,24.44,.13,21.16,.01,90.00
2016.11.05-08:00,1.02,91.75,1.04,89.15,1.17,74.27,1.05,68.83,.99,72.30,1.00,72.37,.88,69.41,.63,80.90,.44,56.98,.36,44.27,.11,19.32,.13,14.66,.00,90.00
2016.11.05-09:00,.92,90.25,.96,87.09,1.17,75.18,1.08,69.68,1.00,72.97,1.01,74.78,.88,72.39,.57,81.93,.44,55.33,.38,50.08,.13,21.08,.14,13.41,.00,90.00
2016.11.05-10:00,.82,85.53,.90,83.39,1.17,75.90,1.10,70.60,1.02,73.60,1.01,77.02,.88,75.17,.52,80.48,.45,53.99,.40,55.72,.16,26.31,.16,16.23,.00,90.00
2016.11.05-11:00,.77,78.09,.87,78.74,1.16,76.23,1.12,71.33,1.03,73.99,1.01,78.70,.88,77.23,.48,76.36,.46,53.18,.41,60.44,.18,32.44,.18,21.20,.01,90.00
2016.11.05-12:00,.78,70.07,.86,74.42,1.15,76.31,1.14,71.88,1.05,74.13,1.01,79.52,.89,78.04,.48,70.37,.48,52.93,.41,64.05,.20,38.19,.20,26.63,.01,90.00
2016.11.05-13:00,.85,64.31,.87,71.09,1.14,76.21,1.17,72.24,1.08,74.07,1.01,79.52,.90,77.72,.50,64.89,.50,53.73,.39,66.65,.21,42.82,.21,31.11,.02,90.00
2016.11.05-14:00,.94,61.56,.89,68.35,1.13,75.79,1.17,72.23,1.09,73.82,1.00,78.96,.90,76.83,.55,62.21,.53,56.18,.36,68.32,.21,46.23,.21,34.16,.02,90.00
2016.11.05-15:00,1.02,61.66,.92,66.13,1.11,75.07,1.18,72.07,1.09,73.59,.98,78.27,.89,75.99,.59,62.43,.55,59.97,.32,68.95,.19,48.38,.19,35.38,.02,90.00
2016.11.05-16:00,1.05,63.12,.97,64.64,1.11,74.32,1.18,72.21,1.08,73.76,.96,77.84,.88,75.53,.62,64.20,.56,63.92,.28,68.26,.17,49.90,.17,35.02,.01,90.00
2016.11.05-17:00,1.07,63.71,1.02,63.58,1.10,73.58,1.17,72.82,1.07,74.29,.93,77.57,.85,75.25,.62,66.33,.56,67.26,.25,66.38,.15,51.80,.15,33.30,.01,90.00
2016.11.05-18:00,1.10,63.86,1.07,62.76,1.09,72.78,1.16,73.75,1.06,74.91,.89,77.09,.83,74.91,.62,68.33,.55,69.94,.23,64.02,.13,54.13,.13,29.39,.00,90.00
2016.11.05-19:00,1.14,64.11,1.12,62.57,1.10,72.21,1.15,74.94,1.05,75.57,.87,76.45,.81,74.83,.61,70.18,.54,72.21,.22,61.75,.12,55.43,.12,22.84,.00,270.00
2016.11.05-20:00,1.19,65.05,1.18,63.19,1.11,72.06,1.15,76.24,1.04,76.27,.86,75.83,.80,75.24,.59,71.29,.52,73.75,.22,59.91,.11,55.29,.12,17.74,.00,270.00
2016.11.05-21:00,1.24,66.53,1.24,64.32,1.14,72.13,1.14,77.41,1.03,76.89,.85,75.27,.80,76.00,.58,71.03,.49,74.07,.24,58.61,.12,54.54,.14,17.92,.00,90.00
2016.11.05-22:00,1.29,68.13,1.29,65.65,1.15,72.23,1.13,78.36,1.03,77.34,.86,74.74,.80,76.81,.57,69.61,.47,73.18,.26,57.37,.14,53.82,.16,22.11,.01,90.00
2016.11.05-23:00,1.33,70.07,1.33,67.46,1.17,72.54,1.12,79.02,1.03,77.53,.87,74.04,.81,77.05,.58,67.58,.45,71.13,.29,55.40,.16,53.69,.19,27.90,.02,90.00
2016.11.05-24:00,1.36,72.61,1.37,69.96,1.20,72.92,1.11,79.14,1.04,77.20,.90,72.78,.82,76.03,.60,65.54,.44,68.07,.30,52.49,.19,54.35,.22,33.85,.03,90.00
2016.11.06-01:00,1.38,75.72,1.39,73.06,1.21,73.05,1.09,78.40,1.04,76.13,.93,70.82,.84,73.66,.64,64.37,.43,64.85,.32,49.09,.20,55.17,.24,38.62,.04,90.00
2016.11.06-02:00,1.36,79.29,1.39,76.61,1.22,72.98,1.07,76.66,1.04,74.47,.96,68.54,.86,70.66,.68,64.74,.45,62.55,.33,45.74,.20,55.12,.24,41.20,.04,90.00
2016.11.06-03:00,1.32,82.88,1.35,80.09,1.22,72.85,1.04,74.11,1.04,72.56,.99,66.44,.89,67.97,.72,66.56,.46,61.43,.35,43.04,.19,53.89,.23,41.53,.04,90.00
2016.11.06-04:00,1.23,85.89,1.28,82.82,1.21,72.71,1.02,71.24,1.02,70.76,1.01,64.94,.91,66.14,.74,69.28,.48,60.99,.36,41.48,.18,51.30,.21,39.68,.03,90.00
2016.11.06-05:00,1.13,88.23,1.19,84.62,1.19,72.97,1.01,68.81,1.01,69.45,1.03,64.43,.92,65.45,.73,72.50,.49,60.86,.37,41.36,.16,46.58,.19,35.15,.03,90.00
2016.11.06-06:00,1.04,90.31,1.11,85.65,1.18,73.94,1.01,67.43,1.00,68.87,1.04,65.08,.92,65.97,.70,75.77,.49,60.46,.37,42.46,.14,40.03,.17,28.75,.02,90.00
2016.11.06-07:00,.96,93.23,1.05,85.90,1.17,75.29,1.02,67.04,1.00,68.87,1.05,66.77,.91,67.48,.65,78.46,.48,59.44,.37,44.36,.13,33.90,.17,23.07,.01,90.00
2016.11.06-08:00,.86,96.85,.98,85.21,1.14,76.35,1.03,67.13,1.00,69.12,1.04,69.21,.90,69.79,.60,80.23,.48,58.25,.38,47.05,.13,29.93,.16,19.51,.01,90.00
2016.11.06-09:00,.77,99.79,.93,83.34,1.11,76.79,1.04,67.27,1.00,69.31,1.04,71.83,.89,72.38,.54,80.53,.48,56.94,.39,50.54,.14,29.69,.17,19.27,.00,90.00
2016.11.06-10:00,.70,99.77,.90,80.40,1.09,76.62,1.06,67.43,1.01,69.44,1.02,74.12,.87,74.63,.48,78.28,.48,55.44,.39,54.29,.16,32.89,.18,22.38,.01,90.00
2016.11.06-11:00,.62,101.12,.87,76.73,1.07,75.92,1.09,67.69,1.03,69.70,1.02,75.79,.86,76.12,.44,73.01,.48,54.40,.40,57.64,.18,37.46,.19,27.20,.01,90.00
2016.11.06-12:00,.54,98.67,.84,72.44,1.05,74.58,1.12,68.04,1.06,70.11,1.02,76.64,.86,76.39,.44,65.68,.49,54.13,.40,60.24,.20,42.21,.20,32.58,.02,90.00
2016.11.06-13:00,.48,91.34,.83,68.37,1.04,72.99,1.15,68.73,1.10,70.90,1.03,77.00,.88,75.75,.48,59.27,.51,54.92,.39,61.99,.20,46.02,.21,36.98,.02,90.00
2016.11.06-14:00,.46,81.70,.84,65.20,1.04,71.50,1.17,69.71,1.12,71.99,1.03,77.15,.90,74.78,.55,55.93,.53,56.91,.37,62.98,.20,48.65,.20,39.78,.02,90.00
2016.11.06-15:00,.50,70.87,.87,62.91,1.05,70.17,1.18,70.74,1.13,73.11,1.01,77.17,.91,73.90,.61,55.45,.55,59.87,.35,63.28,.19,50.24,.19,40.80,.02,90.00
2016.11.06-16:00,.62,62.43,.92,61.27,1.06,69.08,1.18,71.82,1.11,74.20,.98,77.12,.90,73.43,.66,56.93,.57,63.38,.33,62.90,.18,50.92,.17,39.58,.02,90.00
2016.11.06-17:00,.74,58.68,.97,59.68,1.08,68.34,1.17,73.03,1.08,75.25,.94,76.97,.89,73.40,.70,59.51,.58,66.87,.30,61.86,.16,51.08,.15,35.78,.01,90.00
2016.11.06-18:00,.87,57.69,1.01,57.94,1.10,68.05,1.15,74.38,1.05,76.10,.91,76.47,.87,73.61,.72,62.58,.57,70.00,.28,60.37,.13,50.98,.13,29.38,.01,90.00
2016.11.06-19:00,.95,59.14,1.07,57.95,1.13,68.52,1.14,75.89,1.02,76.65,.88,75.52,.85,74.03,.72,66.00,.56,72.61,.27,58.46,.12,49.97,.12,21.56,.00,90.00
2016.11.06-20:00,1.00,62.21,1.13,59.45,1.16,69.80,1.12,77.43,1.00,76.87,.86,74.32,.83,74.72,.71,69.40,.53,74.38,.27,56.49,.11,48.26,.12,16.14,.00,270.00
2016.11.06-21:00,1.04,65.71,1.19,61.44,1.18,71.35,1.10,78.58,.98,76.68,.84,73.05,.81,75.50,.69,72.16,.50,74.92,.28,55.13,.12,47.31,.13,15.98,.00,90.00
2016.11.06-22:00,1.06,68.88,1.24,63.28,1.19,72.62,1.08,79.09,.96,76.09,.85,71.94,.80,76.07,.67,73.87,.47,74.09,.29,54.52,.13,47.27,.15,19.34,.01,90.00
2016.11.06-23:00,1.07,71.95,1.27,64.98,1.19,73.56,1.06,79.08,.96,75.34,.86,71.21,.79,76.17,.65,74.47,.44,72.00,.31,53.90,.15,47.75,.18,24.30,.01,90.00
2016.11.06-24:00,1.06,74.83,1.30,66.71,1.20,74.25,1.05,78.66,.97,74.50,.90,70.67,.80,75.31,.65,74.15,.43,68.95,.33,52.60,.18,48.78,.21,29.73,.02,90.00
2016.11.07-01:00,1.05,77.37,1.31,68.48,1.20,74.61,1.04,77.82,.98,73.44,.93,69.95,.82,73.19,.66,73.28,.43,65.42,.34,50.50,.20,50.34,.23,35.03,.03,90.00
2016.11.07-02:00,1.05,79.58,1.31,70.44,1.19,74.75,1.03,76.55,.99,72.24,.97,69.10,.84,70.27,.68,72.55,.44,62.10,.35,47.87,.20,51.85,.24,39.39,.04,90.00
2016.11.07-03:00,1.04,81.64,1.29,72.59,1.19,74.94,1.02,75.04,1.01,71.24,1.01,68.41,.87,67.48,.70,72.64,.46,59.63,.36,45.28,.20,52.55,.24,42.08,.04,90.00
2016.11.07-04:00,1.01,83.03,1.24,74.30,1.18,74.92,1.00,73.08,1.01,70.17,1.02,67.80,.90,65.26,.71,73.69,.49,58.54,.37,43.60,.19,51.99,.23,42.72,.04,90.00
2016.11.07-05:00,.98,83.52,1.18,75.25,1.15,74.64,.98,70.71,1.00,68.93,1.03,67.35,.92,64.01,.70,75.75,.51,58.93,.39,43.14,.17,49.36,.21,40.75,.03,90.00
2016.11.07-06:00,.95,84.02,1.13,75.87,1.14,74.48,.98,68.43,.99,67.72,1.02,67.29,.92,63.89,.67,78.37,.52,59.92,.40,43.76,.15,44.59,.19,36.51,.02,90.00
2016.11.07-07:00,.91,85.61,1.12,76.99,1.12,74.88,.98,67.00,.99,66.94,1.02,67.90,.92,64.90,.62,80.58,.52,60.52,.40,45.16,.14,38.55,.17,31.03,.02,90.00
2016.11.07-08:00,.85,87.81,1.09,78.32,1.10,75.41,.99,66.34,1.00,66.66,1.00,69.17,.92,66.86,.56,81.47,.51,60.63,.40,47.33,.13,32.82,.16,25.67,.01,90.00
2016.11.07-09:00,.76,88.83,1.05,78.90,1.06,75.38,1.00,65.97,1.01,66.75,.99,70.90,.91,69.50,.50,80.57,.50,60.44,.41,50.13,.14,29.40,.16,22.41,.01,90.00
2016.11.07-10:00,.66,87.10,.99,78.04,1.03,74.55,1.02,65.74,1.02,67.22,.97,72.84,.89,72.43,.45,77.29,.49,59.81,.41,53.20,.15,29.38,.17,22.72,.01,90.00
2016.11.07-11:00,.58,81.03,.95,75.75,1.00,73.07,1.04,65.73,1.04,68.08,.97,74.70,.89,75.20,.41,71.20,.47,59.11,.41,56.27,.16,31.42,.17,25.55,.01,90.00
2016.11.07-12:00,.50,70.44,.92,72.42,.99,71.05,1.07,65.99,1.06,69.24,.97,76.21,.88,77.22,.41,63.22,.47,58.77,.41,59.07,.18,34.01,.18,29.28,.01,90.00
2016.11.07-13:00,.48,55.66,.90,68.94,.98,68.80,1.11,66.66,1.09,70.70,.97,77.39,.89,78.16,.46,55.95,.48,58.88,.40,61.28,.19,36.59,.19,33.23,.02,90.00
2016.11.07-14:00,.54,44.31,.91,66.49,1.00,66.93,1.14,67.80,1.11,72.45,.98,78.36,.89,78.23,.53,51.79,.51,59.54,.38,62.59,.20,38.77,.19,36.69,.02,90.00
2016.11.07-15:00,.64,37.81,.94,65.18,1.02,65.52,1.16,69.12,1.12,74.18,.97,79.00,.89,77.73,.61,50.99,.53,60.97,.36,63.01,.20,40.60,.19,39.04,.02,90.00